Terminal Aerodrome Forecast
Issued by NWS

Home | Current Version | Previous Version | Text Only | Print | Product List | Glossary On
Versions: 1 2 3 4 5 6 7 8 9 10 11 12 13 14 15 16 17 18 19 20 21 22 23 24 25
000
FTUS41 KBOX 122332
TAFBED
TAF
KBED 122332Z 1300/1324 14008KT P6SM FEW080
     FM130300 20006KT P6SM FEW100
     FM130500 21005KT P6SM FEW250
     FM131400 21010G18KT P6SM SCT100
     FM131600 21012G23KT P6SM BKN090=

USA.gov is the U.S. government's official web portal to all federal, state and local government web resources and services.